Regional Weather Roundup
Issued by NWS Cleveland, OH

Home | Current Version | Previous Version | Graphics & Text | Print | Product List | Glossary On
Versions: 1 2 3 4 5 6 7 8 9 10 11 12 13 14 15 16 17 18 19 20 21 22 23 24 25 26 27 28 29 30 31 32 33 34 35 36 37 38 39 40 41 42 43 44 45 46 47 48 49 50
000
ASUS41 KCLE 210110
RWRCLE
OHIO REGIONAL WEATHER ROUNDUP
NATIONAL WEATHER SERVICE CLEVELAND, OH
800 PM EST TUE FEB 20 2018

NOTE: "FAIR" INDICATES FEW OR NO CLOUDS BELOW 12,000 FEET WITH NO
SIGNIFICANT WEATHER AND/OR OBSTRUCTIONS TO VISIBILITY.

OHZ001>008-015>018-024>027-034-035-043-044-210200-
   NORTHWEST OHIO

CITY           SKY/WX    TMP DP  RH WIND       PRES   REMARKS
DEFIANCE       CLOUDY    68  57  68 S14G22    29.98S
FINDLAY        FAIR      68  54  60 S17       30.02F
TOLEDO EXPRESS FAIR      68  58  70 S12       29.99S
TOLEDO EXEC    FAIR      65  56  72 S14       30.00F
LIMA           FAIR      68  56  65 S15G23    30.05S
$$

OHZ009>014-019>023-028>033-038-089-210200-
   NORTHEAST OHIO

CITY           SKY/WX    TMP DP  RH WIND       PRES   REMARKS
CLE-HOPKINS    CLOUDY    71  54  54 S14       30.09F
CLE-LAKEFRONT  FAIR      71  53  52 S15       30.05F
CUY CO. ARPT   MOCLDY    72  55  56 S17       30.08F
LORAIN-ELYRIA  FAIR      68  50  52 S15       30.07F
ASHTABULA      FAIR      65  56  72 S9        30.10F
AKRON-CANTON   FAIR      68  51  54 S13       30.14S
WOOSTER        FAIR      67  53  61 S14       30.11F
MANSFIELD      FAIR      67  55  65 S16       30.10F
YOUNGSTOWN     MOCLDY    69  53  56 S9        30.14S
$$

OHZ042-051>053-060>062-070>072-077>081-210200-
  SOUTHWEST OHIO

CITY           SKY/WX    TMP DP  RH WIND       PRES   REMARKS
CINC-COVINGTON MOCLDY    72  56  57 S10       30.13R
CINC-LUNKEN    MOCLDY    71  55  56 S9        30.13S
HAMILTON       FAIR      73  56  54 S9G17     30.12S
DAYTON         MOCLDY    70  55  59 S17       30.11S
WRIGHT-PAT AFB FAIR      71  53  52 S16       30.11R
DAYTON GENERAL FAIR      72  53  51 SW14      30.11S
WILMINGTON     FAIR      66  55  67 S12       30.14S
$$

OHZ036-037-039>041-045>050-054>059-063>069-073>076-082>088-210200-
  CENTRAL AND SOUTHEAST OHIO

CITY           SKY/WX    TMP DP  RH WIND       PRES   REMARKS
COLUMBUS       CLOUDY    69  55  60 S9        30.13S
OSU AIRPORT    FAIR      70  56  61 S10       30.12S
BOLTON FIELD   NOT AVBL
RICKENBACK AFB FAIR      66  54  65 S10       30.14S
NEWARK         FAIR      69  53  56 S9        30.14S
MARION         FAIR      68  54  60 S17       30.10R
LANCASTER      FAIR      68  52  56 S8        30.16S
ZANESVILLE     FAIR      65  50  58 S5        30.16S
NEW PHILLY     NOT AVBL
$$



USA.gov is the U.S. government's official web portal to all federal, state and local government web resources and services.